Vorticity
4 4 4 4 5 5 5 6 6 6 6 7 9 8 5 5 6 7 7 6 7 8 6 11 1 4 5 7 3 4 4 4 4 4 4 4 4 6 7 4 6 -7 11 16 18 8 5
5 5 5 5 5 5 5 5 7 8 9 8 7 9 8 5 6 7 7 7 6 7 9 8 4 4 9 4 7 5 4 5 5 4 5 5 4 6 6 6 11 -1 8 1 12 17 11
5 5 5 5 5 5 5 5 5 5 5 8 9 8 10 9 6 6 6 7 7 8 7 9 11 4 9 6 5 7 6 6 5 6 5 6 8 8 7 15 -7 12 18 -3 -11 6 10
5 5 5 6 6 6 5 5 4 4 5 5 7 9 9 10 9 7 6 7 7 9 9 12 13 4 9 4 5 7 7 6 6 7 7 6 8 10 13 6 -1 3 -5 11 18 9 3
6 6 6 7 6 6 5 5 4 4 4 6 6 6 8 9 10 9 7 7 7 3 17 11 13 5 15 2 5 8 6 7 7 6 7 8 9 13 8 6 26 16 -4 7 16 22 4
6 6 7 7 7 6 5 5 5 4 4 5 6 7 6 7 8 10 9 9 8 9 17 -1 17 11 9 4 5 9 5 6 7 6 8 6 12 6 4 9 -3 -7 2 5 4 8 12
6 6 6 6 6 6 6 5 5 5 5 4 5 4 6 6 6 7 7 9 9 18 1 11 14 0 7 7 7 7 5 8 6 5 6 8 9 3 7 9 6 2 9 15 17 -3 15
6 7 5 4 4 5 6 6 6 6 6 6 5 5 4 3 4 5 5 6 5 6 11 14 25 5 7 6 5 10 6 6 5 6 4 12 1 6 8 7 9 1 21 -0 8 23 16
7 3 2 2 5 6 7 7 7 7 6 6 6 6 5 6 5 4 2 4 4 6 11 15 22 6 3 4 6 15 5 7 8 6 3 14 -3 3 7 8 4 26 -4 5 1 28 17
7 7 3 6 5 5 4 1 0 4 8 7 6 6 6 6 5 5 6 3 4 6 26 20 24 10 15 6 19 -8 11 4 6 3 11 13 -5 3 3 5 7 19 4 8 35 15 14
6 6 6 6 6 8 6 6 6 9 8 8 6 6 6 6 6 5 6 7 5 10 18 10 19 3 7 2 2 11 5 6 2 6 10 7 2 13 -2 2 12 -11 4 32 14 17 25
6 5 5 6 6 6 6 8 9 8 6 7 7 7 6 7 6 6 8 6 11 25 12 1 -1 6 -0 2 3 4 14 9 3 11 6 9 18 17 -1 -4 16 2 4 29 16 17 13
7 7 7 8 8 8 9 10 9 8 10 9 8 6 6 6 7 7 7 9 34 10 -2 20 16 12 -16 5 -1 5 18 9 2 16 6 -0 14 17 9 6 13 10 16 5 10 8 -6
8 11 12 13 14 14 15 14 12 11 10 10 10 8 8 9 8 8 8 14 19 5 -7 -17 -11 10 9 4 10 21 19 -6 1 14 17 20 8 7 -18 14 1 8 11 19 11 6 -11
7 6 4 3 3 3 3 5 9 10 13 18 19 16 13 7 8 8 9 13 -29 -2 19 8 4 5 25 29 6 1 4 17 25 5 4 6 11 -16 18 -3 15 3 4 12 15 16 12
7 7 8 10 10 9 8 6 5 5 3 3 6 9 12 22 16 10 10 -3 -6 3 11 8 5 -1 -21 -4 24 9 19 -5 12 4 -2 1 19 7 13 -8 10 7 11 5 9 9 16
8 10 13 14 19 21 22 23 22 19 14 12 11 8 13 11 16 19 11 7 14 16 21 16 15 9 20 10 1 10 -4 -11 20 23 18 14 11 -6 9 8 -6 10 13 7 16 10 6
17 16 11 10 10 8 8 10 13 17 20 26 21 21 15 15 16 12 16 18 16 14 16 12 12 10 7 8 13 7 -9 -7 -4 -8 6 15 4 4 -0 10 12 16 10 2 10 12 6
11 9 8 8 8 9 8 8 9 11 11 12 11 12 18 22 12 11 14 8 5 8 11 20 13 15 18 17 -2 23 7 16 21 17 16 9 11 13 24 23 21 11 7 3 7 17 11
7 8 8 7 7 7 7 8 8 8 10 11 14 14 12 12 13 14 14 17 18 16 13 9 3 -0 -3 -2 -1 -0 19 23 18 16 -20 8 18 -12 -31 -41 -36 -10 -5 7 17 8 -8
8 7 7 7 8 8 8 7 7 8 8 10 12 10 7 -11 4 5 9 4 4 5 -7 5 17 25 27 28 26 26 14 6 6 16 20 6 4 13 11 13 11 8 4 1 7 4 -7
7 7 8 8 8 8 9 9 8 9 11 15 9 10 15 10 12 13 12 6 2 4 0 7 1 -6 -12 -8 -4 -11 -6 -4 2 3 8 3 5 -1 4 7 3 5 6 3 3 2 1
7 7 7 7 8 9 8 9 10 10 10 11 12 11 11 8 7 11 10 11 5 4 17 18 19 17 22 16 4 1 0 2 -6 -10 -7 -8 -9 -7 3 9 23 52 30 29 25 24 19
7 7 8 8 8 8 8 7 10 11 12 10 10 12 10 11 12 9 7 5 8 9 7 8 3 3 10 14 14 11 8 11 9 11 5 2 9 22 -3 17 36 22 57 24 19 15 15
8 8 8 9 10 9 9 10 10 10 12 17 14 14 15 9 7 9 27 27 21 4 8 4 16 25 17 11 15 39 26 41 51 60 43 33 25 -6 -11 -6 -47 -32 -38 -35 -35 -22 21
7 7 8 9 9 10 12 12 13 14 15 16 12 7 8 4 13 -8 26 29 9 -6 3 14 9 -2 15 20 24 16 11 2 23 17 35 34 45 -5 -6 -9 -5 26 -11 11 35 28 8
9 10 10 9 10 11 10 11 11 13 16 9 13 11 3 7 20 -11 -1 17 52 4 -6 7 18 26 28 27 8 12 17 -2 12 8 13 15 27 14 8 -14 21 17 8 -27 2 -10 6
10 11 11 10 8 10 12 12 13 13 16 15 14 16 4 -3 5 24 32 26 -43 -4 34 1 15 30 5 18 14 14 9 2 13 3 1 3 3 20 39 13 25 20 5 -10 18 -5 6
9 10 11 14 16 16 17 21 19 18 20 18 18 9 11 15 -18 -25 8 -10 13 71 -33 26 -15 -1 -11 -9 -14 -17 -33 -27 -34 3 -33 36 32 -6 -9 -4 -21 0 2 13 -4 -29 -25
Height
3167 3166 3167 3166 3166 3165 3165 3163 3162 3160 3159 3157 3156 3155 3153 3152 3151 3149 3148 3146 3144 3143 3142 3140 3139 3138 3137 3136 3134 3132 3130 3128 3127 3125 3122 3120 3117 3114 3112 3110 3107 3104 3102 3099 3096 3093 3087
3167 3167 3167 3166 3166 3165 3164 3163 3161 3160 3158 3157 3155 3153 3152 3151 3150 3149 3147 3145 3143 3142 3140 3139 3137 3137 3136 3135 3133 3131 3129 3128 3126 3124 3121 3119 3115 3112 3110 3107 3105 3102 3098 3097 3094 3089 3085
3166 3166 3166 3166 3164 3164 3163 3162 3161 3159 3158 3156 3155 3153 3151 3150 3149 3147 3146 3144 3142 3140 3138 3137 3136 3135 3134 3135 3132 3130 3128 3126 3124 3122 3120 3117 3114 3111 3107 3104 3102 3100 3096 3094 3090 3085 3081
3165 3165 3165 3164 3164 3163 3162 3162 3160 3159 3157 3155 3154 3152 3150 3149 3147 3146 3144 3142 3141 3139 3137 3135 3134 3133 3132 3131 3130 3129 3127 3125 3123 3121 3118 3115 3112 3109 3106 3103 3099 3097 3093 3089 3087 3082 3078
3165 3164 3164 3163 3163 3161 3161 3160 3159 3158 3156 3155 3153 3151 3149 3147 3145 3144 3142 3141 3139 3137 3134 3133 3133 3132 3131 3130 3128 3127 3125 3123 3121 3119 3116 3113 3110 3107 3105 3101 3097 3093 3090 3088 3083 3079 3076
3164 3163 3163 3163 3163 3162 3160 3159 3158 3157 3156 3154 3152 3150 3148 3146 3144 3143 3140 3139 3137 3135 3133 3132 3130 3132 3130 3129 3127 3125 3123 3121 3120 3117 3115 3112 3108 3106 3103 3099 3097 3092 3088 3085 3082 3077 3072
3163 3163 3162 3162 3162 3161 3160 3159 3157 3156 3155 3153 3151 3149 3147 3145 3143 3141 3140 3138 3138 3135 3132 3130 3129 3127 3127 3126 3125 3123 3122 3120 3118 3116 3113 3111 3108 3105 3102 3098 3095 3092 3087 3083 3080 3075 3068
3162 3162 3161 3160 3159 3159 3158 3157 3156 3154 3153 3151 3149 3148 3146 3144 3142 3139 3138 3135 3134 3132 3128 3126 3124 3124 3124 3123 3123 3121 3121 3120 3117 3114 3112 3110 3106 3104 3100 3097 3093 3090 3085 3081 3076 3072 3067
3160 3160 3159 3158 3158 3157 3155 3154 3153 3152 3151 3149 3147 3146 3144 3142 3140 3138 3135 3134 3132 3129 3125 3122 3120 3121 3122 3122 3120 3119 3119 3117 3115 3112 3110 3107 3106 3102 3099 3096 3092 3088 3082 3077 3074 3068 3065
3158 3158 3157 3156 3155 3154 3153 3151 3150 3148 3147 3146 3145 3143 3142 3140 3140 3136 3134 3131 3129 3127 3123 3121 3118 3118 3119 3118 3118 3116 3115 3116 3113 3111 3108 3106 3103 3101 3098 3095 3090 3084 3080 3074 3070 3068 3066
3155 3154 3154 3152 3151 3150 3149 3147 3146 3145 3143 3142 3140 3139 3139 3137 3135 3134 3133 3129 3127 3127 3124 3120 3117 3116 3116 3118 3117 3114 3113 3111 3110 3108 3108 3104 3100 3098 3096 3093 3089 3085 3079 3072 3069 3066 3065
3152 3150 3149 3148 3146 3145 3143 3142 3141 3140 3139 3137 3136 3134 3133 3133 3131 3130 3128 3127 3126 3127 3120 3117 3115 3114 3114 3113 3113 3111 3110 3109 3107 3105 3102 3100 3097 3096 3094 3091 3087 3083 3079 3071 3068 3066 3065
3147 3145 3144 3142 3141 3140 3138 3137 3136 3134 3132 3131 3130 3129 3128 3127 3127 3125 3124 3124 3125 3122 3119 3115 3113 3112 3111 3110 3108 3107 3106 3105 3104 3102 3099 3097 3094 3093 3091 3089 3086 3082 3076 3073 3073 3070 3069
3142 3141 3139 3137 3135 3133 3131 3129 3128 3126 3126 3126 3124 3122 3121 3121 3120 3120 3119 3120 3118 3114 3113 3110 3110 3108 3108 3107 3104 3103 3102 3101 3100 3098 3095 3094 3093 3091 3090 3088 3085 3081 3080 3080 3081 3078 3071
3137 3136 3134 3132 3131 3129 3126 3123 3121 3119 3118 3117 3116 3113 3113 3113 3112 3112 3114 3111 3109 3108 3107 3106 3105 3103 3102 3101 3101 3100 3098 3097 3096 3095 3095 3091 3090 3088 3087 3085 3085 3081 3080 3079 3077 3075 3074
3132 3130 3127 3126 3123 3120 3118 3117 3114 3112 3110 3110 3109 3107 3105 3105 3104 3104 3104 3101 3101 3102 3101 3100 3099 3099 3096 3096 3096 3094 3092 3093 3093 3092 3090 3088 3086 3086 3084 3083 3082 3081 3080 3078 3076 3076 3071
3125 3123 3120 3118 3116 3114 3110 3108 3106 3105 3103 3101 3101 3099 3097 3096 3096 3096 3094 3093 3093 3094 3095 3095 3092 3092 3090 3091 3091 3090 3088 3088 3087 3086 3085 3084 3084 3084 3081 3080 3078 3078 3076 3076 3075 3075 3074
3119 3118 3115 3112 3111 3109 3106 3103 3101 3099 3098 3095 3093 3092 3089 3088 3089 3087 3086 3087 3088 3087 3088 3089 3087 3085 3085 3085 3085 3084 3083 3084 3084 3083 3081 3081 3077 3076 3078 3076 3074 3073 3073 3073 3073 3073 3071
3115 3114 3110 3108 3107 3105 3102 3099 3097 3095 3093 3091 3089 3086 3085 3084 3081 3080 3082 3081 3081 3081 3081 3081 3082 3081 3079 3080 3081 3078 3078 3078 3077 3078 3076 3075 3073 3072 3072 3073 3071 3070 3070 3070 3069 3067 3064
3111 3109 3106 3104 3103 3101 3098 3095 3092 3091 3089 3088 3086 3083 3081 3079 3077 3075 3074 3076 3076 3075 3074 3074 3074 3075 3074 3073 3073 3071 3072 3072 3071 3071 3071 3071 3068 3068 3067 3067 3068 3067 3067 3066 3065 3062 3058
3107 3105 3103 3101 3098 3096 3093 3091 3089 3087 3084 3083 3082 3077 3075 3075 3074 3072 3070 3070 3069 3070 3071 3069 3067 3067 3067 3066 3066 3064 3064 3064 3065 3065 3065 3065 3060 3062 3061 3062 3061 3060 3060 3060 3055 3054 3052
3103 3101 3099 3097 3094 3091 3089 3086 3084 3080 3078 3077 3076 3074 3071 3070 3069 3068 3067 3065 3064 3063 3064 3063 3064 3064 3063 3062 3060 3058 3058 3058 3058 3058 3058 3057 3054 3054 3051 3055 3055 3050 3051 3048 3046 3043 3037
3099 3097 3094 3091 3089 3086 3082 3080 3078 3075 3072 3070 3068 3066 3065 3064 3063 3063 3061 3060 3059 3055 3058 3055 3056 3055 3055 3055 3051 3050 3050 3049 3048 3050 3051 3051 3050 3051 3044 3048 3046 3038 3034 3035 3031 3031 3030
3093 3091 3089 3085 3082 3079 3075 3072 3070 3069 3067 3065 3063 3061 3059 3057 3057 3057 3055 3055 3055 3052 3049 3050 3051 3048 3048 3044 3042 3041 3039 3037 3037 3036 3041 3040 3044 3048 3041 3045 3036 3022 3022 3023 3023 3023 3023
3088 3084 3082 3080 3075 3072 3069 3067 3064 3062 3060 3058 3056 3055 3052 3049 3049 3050 3049 3048 3047 3047 3045 3042 3042 3042 3038 3037 3034 3029 3028 3026 3024 3023 3024 3028 3034 3037 3037 3034 3022 3019 3020 3018 3020 3021 3020
3080 3077 3074 3072 3068 3064 3061 3059 3057 3056 3054 3050 3049 3047 3045 3043 3043 3042 3042 3041 3040 3038 3038 3038 3037 3036 3033 3030 3030 3027 3025 3022 3022 3019 3018 3019 3022 3028 3028 3026 3018 3011 3012 3014 3014 3013 3017
3073 3070 3067 3064 3060 3057 3055 3052 3050 3049 3048 3044 3043 3042 3040 3036 3035 3036 3036 3034 3035 3033 3030 3029 3027 3028 3025 3023 3024 3022 3019 3020 3018 3015 3015 3015 3015 3014 3016 3018 3006 3006 3009 3013 3013 3013 3010
3065 3062 3059 3056 3052 3048 3046 3043 3042 3040 3039 3038 3036 3036 3035 3030 3027 3029 3029 3030 3028 3028 3027 3026 3024 3022 3021 3020 3019 3018 3015 3013 3010 3009 3009 3011 3011 3008 3010 3009 3003 3002 3004 3007 3006 3005 3006
3056 3054 3051 3048 3045 3041 3038 3036 3034 3032 3031 3030 3028 3029 3028 3024 3021 3021 3020 3023 3022 3022 3022 3018 3021 3021 3019 3018 3016 3013 3010 3006 3004 3002 3003 3003 3004 3002 3002 2996 2996 2996 2997 2999 3000 2999 3000